Theta_e
348 348 347 347 347 346 349 350 349 349 349 349 347 345 345 345 344 344 343 343 343 340 333 333 337 335 341 338 341 341 341 342 342 343 343 344 344 344 344 343 343 344 344 345 345 346 344 345 343 343 346 346 345 338 339 342 344 345 344 342 343 344
347 347 347 347 347 346 347 348 346 346 346 344 344 344 342 337 343 335 343 340 334 338 331 329 331 342 337 338 338 341 341 342 342 343 343 344 344 343 343 343 344 344 345 345 346 333 335 342 342 342 345 345 338 338 339 341 343 343 344 344 344 346
346 347 346 347 347 346 345 344 344 344 344 344 344 342 335 339 332 331 333 333 336 332 329 330 332 338 339 343 339 341 342 343 343 343 343 343 343 343 343 344 345 346 345 346 337 330 330 331 330 342 347 338 336 337 338 339 341 342 342 343 342 347
345 346 346 346 346 346 344 343 342 341 339 337 335 336 331 331 331 331 334 332 332 332 331 328 342 342 343 336 336 342 342 343 343 343 343 343 345 345 344 344 342 343 343 338 332 331 333 331 330 328 335 336 337 336 336 338 339 340 340 343 343 346
345 346 345 345 345 344 343 342 341 339 336 334 332 331 330 330 331 332 332 333 332 333 331 329 330 332 333 330 330 330 332 333 332 329 341 329 329 330 332 330 330 334 330 332 332 331 331 331 333 335 335 337 337 337 337 337 337 337 338 339 342 345
345 345 345 344 344 345 343 340 338 338 336 332 333 330 330 332 332 332 332 333 335 334 331 331 328 330 330 329 329 328 329 328 328 330 336 330 327 327 329 331 331 333 332 331 331 331 332 336 334 335 336 337 336 335 334 334 335 335 336 337 341 343
344 344 345 345 344 344 342 339 338 338 336 333 330 331 331 331 333 332 333 336 335 333 332 330 330 329 330 331 330 329 329 327 327 328 332 332 330 330 332 333 332 332 330 332 333 333 333 333 333 335 336 336 335 334 333 333 333 332 332 334 339 341
343 344 344 344 343 342 341 339 338 341 338 336 334 332 331 332 334 334 335 336 339 335 335 331 331 331 332 330 330 330 330 331 331 332 335 336 333 333 334 334 332 332 333 332 334 333 334 335 332 335 336 335 334 332 332 331 331 330 330 331 334 337
343 343 344 344 342 342 341 338 337 337 337 339 333 332 331 332 333 334 335 337 340 336 335 333 332 333 333 332 331 333 334 334 334 335 337 334 333 331 330 333 333 333 331 330 331 331 334 333 330 334 335 334 333 331 331 330 329 328 327 326 328 333
343 343 344 343 342 341 340 338 337 337 336 338 333 332 330 331 333 334 334 337 340 338 336 335 334 334 334 332 332 332 334 333 334 334 333 331 332 331 331 331 331 332 331 328 329 332 332 332 332 333 335 334 332 331 330 328 326 325 324 323 324 328
343 344 344 343 342 341 340 338 337 337 336 335 334 333 331 331 332 334 336 338 339 339 337 335 335 334 334 333 332 332 331 332 332 332 331 332 334 334 332 331 331 331 330 329 329 330 330 328 330 332 335 333 331 330 328 327 324 323 321 320 320 320
343 343 343 343 342 340 339 338 338 337 336 335 334 331 330 332 336 335 338 338 338 338 338 335 335 334 334 333 332 331 330 330 330 332 333 334 335 333 333 334 333 332 331 329 328 327 324 322 325 331 334 332 331 329 326 325 322 322 320 318 317 317
343 343 342 342 341 340 339 339 338 337 337 337 333 332 330 332 334 336 338 338 338 337 338 335 334 335 337 332 331 330 329 330 331 333 334 335 334 331 330 330 330 330 330 328 323 321 321 320 322 327 332 331 330 327 326 323 321 319 319 318 317 316
342 342 342 341 341 339 339 339 339 338 339 337 333 332 333 332 335 337 338 337 337 337 336 335 334 333 334 332 330 329 330 331 331 333 335 334 329 329 329 329 329 330 335 325 321 319 318 318 319 323 327 329 328 326 324 322 321 320 319 317 316 314
343 342 342 341 341 339 339 339 338 337 337 336 334 332 332 333 335 338 338 336 336 337 336 334 334 334 332 332 330 329 331 332 331 333 333 332 329 327 327 328 328 328 327 324 320 321 316 317 319 321 323 325 324 324 323 321 319 319 318 316 315 313
341 341 341 341 341 340 339 338 338 341 336 336 335 333 333 334 337 338 338 336 336 338 336 334 334 334 332 331 330 330 332 332 333 332 330 331 331 327 325 327 327 328 323 319 318 315 315 315 316 316 317 319 320 321 320 319 318 317 316 315 314 312
340 341 341 341 341 339 339 338 337 337 336 335 334 333 334 335 337 338 337 336 336 339 336 335 335 334 332 331 330 331 333 332 332 331 329 329 330 328 326 328 325 326 323 318 315 313 313 313 313 313 313 314 315 317 314 314 312 311 312 311 310 310
340 341 341 341 340 339 338 338 337 336 336 334 333 333 335 336 337 337 337 336 337 340 337 335 335 333 332 332 331 331 332 331 331 329 329 329 328 327 325 324 323 323 320 317 313 312 311 311 312 311 310 310 310 310 310 310 312 314 308 308 309 309
340 340 340 340 340 338 337 337 336 334 333 333 332 332 335 336 336 336 337 337 338 338 338 335 335 334 332 333 331 331 330 331 332 330 328 327 325 326 326 323 324 322 320 317 314 312 311 311 311 310 310 309 309 309 310 312 309 306 305 306 309 310
339 340 340 339 339 337 335 335 333 331 331 332 330 333 335 336 335 336 337 338 338 337 337 336 336 335 333 333 331 331 331 333 332 328 325 326 324 325 324 323 322 320 318 318 316 313 313 312 310 309 310 308 309 308 307 309 307 308 309 308 309 307
337 338 338 337 337 335 333 333 333 332 331 330 331 332 335 334 335 336 337 338 337 336 335 335 336 335 333 335 332 331 331 330 328 326 325 325 325 324 324 323 323 320 316 314 313 313 312 311 308 306 307 306 306 309 312 306 304 304 304 304 305 304
337 337 338 337 337 336 335 334 333 331 330 329 331 333 332 333 334 336 337 337 336 335 334 334 335 334 333 332 330 329 329 328 325 324 324 324 323 329 324 322 321 317 317 314 312 313 313 312 309 304 304 303 305 304 309 304 304 304 303 304 304 303
336 336 337 337 337 335 334 334 333 331 331 329 331 334 334 335 335 335 335 335 335 334 333 332 333 333 332 330 329 327 326 326 325 327 324 323 323 322 322 321 320 318 315 315 314 315 313 311 309 307 307 305 301 301 304 301 303 303 304 303 304 303
336 336 337 337 337 336 335 334 333 333 333 333 331 333 331 333 333 333 333 333 333 332 331 331 332 332 331 330 327 326 324 324 324 325 323 322 320 320 319 319 319 319 317 314 312 314 316 313 309 309 305 303 301 300 299 301 298 302 302 302 303 304
336 336 337 337 336 335 335 333 332 331 333 332 333 333 331 330 332 334 333 332 331 331 331 330 330 331 330 327 325 324 323 323 322 320 322 321 321 321 319 320 320 319 317 316 312 311 315 313 311 314 310 304 302 301 300 299 297 298 300 301 300 301
336 336 336 336 336 335 334 332 330 330 329 329 330 330 330 330 330 332 333 333 331 330 330 329 329 328 328 326 324 323 322 321 321 320 321 320 319 317 317 318 319 320 317 316 316 311 311 314 313 315 312 309 308 303 302 302 298 296 302 304 303 304
335 336 336 336 336 336 333 332 331 331 331 330 330 331 330 332 332 332 332 331 329 328 329 329 327 325 324 325 323 322 321 321 321 320 322 317 317 317 316 315 317 317 318 318 315 313 312 312 311 311 311 311 313 308 305 300 297 294 294 295 297 298
335 336 336 336 335 336 333 332 331 331 331 331 331 330 329 329 330 329 329 328 327 326 327 327 325 323 324 324 322 320 320 320 320 319 319 316 315 314 315 314 314 314 316 317 315 315 311 310 313 311 311 307 308 305 304 301 300 298 294 293 295 298
334 335 336 336 335 335 335 333 332 331 330 331 331 330 329 329 328 328 327 325 325 325 324 324 324 323 322 322 324 320 319 318 318 318 319 315 313 313 312 311 311 311 313 312 314 314 312 309 310 309 304 302 303 301 301 302 303 300 297 294 294 295
333 335 336 335 335 335 334 333 332 331 330 329 330 328 328 327 326 325 326 324 323 323 322 322 322 322 321 321 321 320 318 317 316 317 317 313 312 310 309 309 309 310 309 309 308 311 312 308 309 305 306 304 302 300 300 301 300 298 298 296 297 295
333 335 335 335 335 334 334 333 332 331 330 329 328 327 326 325 324 323 324 322 321 321 321 321 320 320 319 317 317 319 316 315 315 319 315 312 311 310 309 308 308 308 308 307 306 307 307 305 305 304 302 305 304 304 302 300 299 299 297 294 295 296
333 334 335 335 335 334 334 333 332 331 330 330 329 328 327 325 324 324 325 323 321 320 319 319 318 316 314 313 316 315 316 315 315 312 311 310 310 309 309 308 307 306 305 304 305 307 304 302 302 301 300 300 300 301 299 300 300 301 300 296 298 295
332 334 334 335 334 334 333 332 332 331 331 330 330 329 328 326 325 325 324 323 320 319 318 317 316 315 312 313 314 313 312 312 311 311 310 309 308 309 308 307 307 305 304 304 303 303 302 301 302 301 300 299 299 300 299 298 299 298 297 297 297 293
332 333 334 334 334 334 333 333 332 331 331 330 330 329 328 327 326 325 324 323 322 320 318 317 315 314 312 313 313 313 313 310 310 310 309 309 308 308 307 306 305 304 303 302 302 301 301 301 300 299 300 299 298 298 297 298 297 297 296 297 295 296
331 333 334 334 334 333 333 332 332 331 331 330 330 329 328 328 326 325 324 323 322 319 318 316 315 313 313 311 311 311 310 309 308 309 309 309 309 307 307 307 305 304 303 302 302 302 301 300 300 299 298 298 299 298 297 296 296 296 296 297 296 295
332 332 333 334 334 334 333 332 331 330 330 330 330 329 328 327 326 325 324 324 321 319 317 315 313 313 312 310 309 309 310 308 308 308 308 308 307 307 305 305 303 303 303 304 301 301 300 300 299 299 299 298 298 297 297 297 297 296 295 296 296 295
332 332 333 333 333 333 333 331 330 330 330 330 329 328 328 326 325 325 324 324 321 318 316 315 314 313 311 309 309 309 308 307 307 307 307 307 307 305 305 305 302 302 301 301 302 300 299 299 298 298 297 297 298 297 297 298 297 298 297 295 295 295
Wind_Speed
8 8 7 6 5 5 8 12 10 12 13 11 11 11 10 11 10 9 9 10 9 5 3 3 4 3 7 4 6 6 5 5 4 4 3 2 2 2 3 3 4 5 5 5 5 5 5 5 5 4 4 8 9 6 5 4 5 5 4 4 4 4
8 9 7 6 5 5 5 9 5 5 5 7 8 9 7 3 7 2 9 7 4 3 3 3 1 6 1 3 5 7 7 6 4 3 2 2 2 3 3 3 4 5 6 5 5 2 2 4 4 3 3 10 6 5 4 4 5 6 5 4 4 7
9 8 8 7 5 5 5 4 4 3 3 6 4 5 2 4 2 3 3 3 3 3 3 2 2 2 1 5 4 7 7 6 5 4 3 3 3 4 4 5 5 6 7 7 3 3 3 3 2 4 8 6 5 5 5 5 5 5 5 4 4 11
10 9 8 6 6 5 4 4 4 3 3 3 3 2 3 3 3 3 3 3 4 3 3 3 4 9 7 3 3 6 6 6 5 4 4 3 4 3 4 5 6 7 5 3 3 3 3 3 1 2 5 5 5 5 5 4 4 5 4 5 5 14
9 8 8 7 7 6 4 4 4 4 4 3 3 3 3 2 3 3 3 3 3 3 3 3 2 1 1 2 2 2 1 0 0 1 2 1 2 3 3 4 3 4 3 2 2 2 1 2 2 5 5 5 5 5 5 5 5 5 4 4 7 14
9 9 8 7 7 6 7 5 5 4 4 2 3 3 3 4 3 3 2 2 3 3 4 4 3 2 1 3 3 3 2 0 0 0 1 2 2 2 3 3 3 3 2 1 0 1 1 1 4 5 5 5 5 5 5 5 5 5 5 5 7 14
9 8 9 7 6 6 5 5 5 5 5 4 3 3 4 4 4 3 2 3 4 4 4 4 4 3 3 3 4 4 3 2 2 1 1 2 2 2 2 3 2 1 1 1 1 2 2 2 3 6 6 6 5 6 5 5 5 5 5 5 7 14
9 9 8 8 7 6 5 5 5 6 6 5 5 4 5 5 4 4 3 4 3 4 4 5 4 4 4 3 3 3 2 1 1 2 2 2 1 1 2 2 1 0 0 1 0 1 3 2 3 5 6 6 6 5 5 6 5 5 5 5 5 11
11 11 8 8 8 6 6 5 5 5 5 6 4 5 5 4 4 4 4 5 4 5 4 4 4 4 3 4 3 3 3 3 3 2 2 1 2 2 0 1 1 2 2 1 1 1 3 3 3 5 6 6 6 6 6 6 5 5 5 5 5 9
12 11 9 8 7 7 7 6 6 6 5 6 5 5 4 5 5 5 5 5 6 5 5 6 5 4 5 4 3 3 3 2 3 2 2 2 1 1 1 0 1 4 2 1 1 0 2 5 3 5 5 6 6 5 5 5 5 5 5 5 5 7
11 11 9 9 8 8 7 7 7 6 5 6 6 5 5 5 5 5 5 5 6 6 5 5 5 5 4 4 4 4 3 2 2 2 2 2 1 2 1 1 1 3 2 1 1 1 2 5 4 5 5 7 6 5 5 5 5 5 5 5 5 5
12 11 10 10 9 8 8 8 7 6 6 6 5 5 6 5 5 5 5 5 6 6 5 5 5 5 5 4 4 3 3 2 2 2 2 2 2 1 2 2 2 2 3 2 2 5 5 5 5 6 6 7 6 6 6 5 5 5 5 5 5 5
12 11 11 11 10 8 8 7 6 7 6 6 6 5 6 5 5 5 4 5 6 6 5 6 5 5 5 4 4 3 3 2 2 2 2 3 2 2 2 2 2 2 5 4 5 5 5 5 5 6 6 6 6 6 5 5 5 5 5 5 5 5
12 13 12 10 9 8 8 7 6 6 6 6 6 6 6 5 5 5 5 5 5 5 5 4 5 4 4 4 4 4 3 2 2 3 3 2 3 2 3 3 2 3 5 5 5 3 5 6 5 5 5 5 5 5 5 5 5 5 5 5 4 5
11 12 12 11 10 9 8 7 6 6 6 6 5 6 6 5 5 6 5 5 5 4 3 4 4 5 4 4 4 3 3 3 3 3 3 2 3 2 3 4 3 5 5 5 5 4 4 5 6 6 5 5 5 5 5 6 5 5 5 4 5 4
12 13 12 11 9 9 8 7 6 6 6 5 5 6 6 5 6 6 6 5 4 4 4 4 4 4 5 4 4 4 3 3 4 3 3 2 2 3 2 3 1 4 6 5 5 5 4 6 5 6 4 5 5 5 6 5 5 5 4 5 4 4
14 14 12 11 10 8 8 7 7 6 6 6 6 6 6 5 6 6 6 5 5 4 4 4 5 4 5 4 4 4 3 4 3 3 3 2 2 1 2 3 2 1 5 6 6 5 5 5 6 5 5 5 4 5 5 5 4 4 4 4 3 3
12 12 11 11 10 8 8 7 6 6 5 6 6 6 6 6 6 6 6 6 5 4 4 4 4 5 4 4 3 3 4 4 4 3 3 3 2 2 1 2 4 3 5 7 5 6 5 5 5 5 6 5 4 4 4 4 4 4 5 4 3 4
12 12 12 11 10 8 7 6 6 6 6 6 5 5 6 6 6 6 6 5 5 5 5 4 4 5 5 4 4 3 4 4 4 3 3 3 2 3 3 1 5 5 4 4 7 5 7 6 6 5 6 4 4 4 4 3 3 5 4 5 4 3
11 12 10 10 9 8 7 8 7 5 6 6 5 5 5 6 6 6 6 6 5 5 5 5 5 5 5 5 4 4 4 4 3 4 4 4 4 4 5 4 5 8 7 5 4 5 6 8 7 7 5 5 5 4 4 3 3 3 3 3 4 4
12 12 11 11 10 10 10 8 7 9 9 6 6 5 6 5 5 5 6 6 6 5 5 5 5 5 5 5 4 4 4 3 4 4 5 5 5 5 4 5 6 5 8 6 3 3 3 7 9 5 5 5 6 4 3 3 3 3 3 2 3 4
11 13 13 13 11 10 9 10 9 8 5 6 6 6 5 5 5 5 5 6 6 5 5 5 5 5 5 5 5 5 4 5 4 4 4 4 4 5 5 5 6 4 1 6 5 5 6 5 2 5 6 2 3 3 2 3 3 2 2 2 2 3
12 13 12 12 11 11 8 8 8 6 7 4 2 4 6 5 5 5 5 5 5 6 6 5 5 5 5 4 5 5 5 5 4 4 5 4 4 4 5 7 6 8 5 1 2 4 4 0 5 3 3 6 1 1 1 1 1 2 2 1 1 3
13 12 12 12 11 9 9 7 6 7 6 6 5 4 3 4 5 5 5 5 4 5 5 5 5 5 4 4 4 5 4 5 5 4 6 6 4 4 4 4 4 6 8 5 3 6 3 2 4 8 3 1 3 3 1 5 2 1 1 1 2 2
14 14 12 11 11 10 9 7 6 5 5 5 4 5 5 4 5 6 5 5 5 5 5 5 5 5 5 5 4 4 5 5 5 4 5 6 5 6 5 5 6 7 8 8 6 4 4 2 5 1 8 4 2 0 3 1 3 1 2 1 1 1
12 12 12 13 12 11 11 11 9 9 9 7 8 9 10 10 7 7 7 4 4 5 5 5 5 5 5 5 5 5 4 5 4 5 5 5 5 3 3 4 6 7 6 5 8 5 4 2 5 1 1 2 4 3 3 2 3 2 1 0 1 1
14 12 12 13 13 12 12 11 13 12 10 10 10 7 5 6 8 6 5 6 5 4 4 6 5 4 5 5 5 4 5 4 4 4 3 5 5 5 5 4 4 5 6 6 4 7 7 5 1 2 0 1 2 1 7 6 3 2 0 2 1 0
11 12 12 12 14 13 13 11 12 12 10 10 10 9 7 6 5 6 6 6 5 5 4 5 6 5 5 5 5 5 4 4 4 4 4 5 5 4 4 2 2 4 5 6 7 7 6 6 7 4 1 2 3 3 3 4 4 6 5 4 2 1
13 12 11 14 14 13 13 13 12 10 10 7 8 7 6 6 7 6 7 5 5 5 5 4 4 5 5 5 4 5 4 4 4 4 3 4 3 4 5 5 4 4 5 5 5 5 6 7 5 5 4 2 4 4 3 3 4 4 3 3 1 3
14 12 12 14 14 14 13 12 12 12 12 8 7 6 7 7 6 6 7 6 4 5 5 5 4 4 4 4 4 4 4 5 5 4 3 5 4 3 3 3 4 4 4 5 3 4 6 6 6 4 4 6 4 2 2 2 1 3 3 1 5 4
15 12 13 14 14 15 13 12 12 13 13 12 11 10 9 7 7 6 7 7 5 4 4 5 5 4 4 4 4 4 4 4 4 4 5 5 5 5 3 3 3 3 3 5 5 4 3 3 3 3 3 6 7 8 7 5 6 4 3 2 2 0
14 14 14 15 15 15 13 13 12 12 13 12 13 11 12 11 10 10 10 9 6 7 6 5 4 5 4 4 5 4 4 5 5 5 5 3 3 4 4 3 3 3 3 3 3 4 4 5 4 4 3 3 4 4 3 4 6 6 7 5 5 4
17 15 16 15 16 16 14 13 12 12 12 11 12 12 12 11 10 10 9 8 7 7 6 6 6 6 5 5 5 6 5 6 5 4 5 4 3 4 4 4 4 3 4 4 5 5 6 4 6 6 5 2 4 3 3 2 5 6 2 5 6 5
18 15 14 15 16 15 15 13 12 12 11 11 12 12 11 11 10 9 9 10 9 9 9 8 7 7 6 5 4 5 6 5 5 5 5 4 4 4 4 5 4 5 4 3 4 4 6 5 5 4 5 6 3 5 3 3 4 6 6 6 4 6
16 16 17 17 15 16 14 13 12 12 11 10 11 10 10 10 10 9 7 7 7 6 8 7 8 6 6 6 5 5 5 6 5 5 5 5 4 4 4 4 4 4 4 3 5 6 5 6 7 5 4 5 5 5 4 3 4 4 5 5 7 7
20 19 17 16 15 15 13 11 11 12 12 12 10 10 9 8 9 10 12 11 9 8 6 7 5 7 6 6 7 6 5 6 5 5 5 5 5 5 4 6 5 5 5 2 6 6 5 6 6 5 6 4 6 4 3 3 3 4 2 3 5 4
17 15 16 17 16 14 12 12 12 12 11 12 13 13 11 11 11 11 12 10 8 7 7 7 7 6 7 5 6 7 6 6 5 5 5 5 5 5 5 5 6 5 6 4 5 6 5 6 5 5 5 5 6 5 3 3 4 4 4 3 3 4
Wind_Direction
155 155 150 150 154 157 173 170 175 176 174 170 175 184 184 185 181 183 183 183 181 166 164 168 190 173 189 180 178 186 186 179 169 192 202 241 292 321 334 340 338 333 327 335 346 352 358 6 18 359 59 100 95 79 72 68 71 67 59 45 45 52
158 159 154 151 155 161 173 170 170 184 181 183 188 189 194 184 188 181 188 187 162 163 149 161 185 188 178 175 186 189 196 196 196 216 235 263 287 297 300 307 313 309 309 321 328 10 354 352 356 350 86 105 94 93 79 77 79 78 60 46 51 74
163 160 156 155 157 164 170 155 170 171 172 185 194 183 180 183 140 172 169 159 159 154 145 153 183 198 152 172 183 195 200 203 210 221 240 264 274 278 291 303 311 311 308 311 341 354 343 321 324 2 100 101 103 97 90 81 79 73 64 63 54 75
166 163 162 159 155 165 162 156 160 161 169 164 190 149 176 168 170 170 170 159 159 159 152 153 204 199 198 184 192 207 206 214 217 226 240 275 307 321 314 324 311 304 307 323 339 354 326 301 344 89 109 109 100 95 88 78 73 68 53 61 72 76
166 163 165 162 164 169 161 163 159 169 173 171 168 156 184 186 183 181 166 167 161 166 154 160 208 275 175 158 193 260 283 272 37 13 343 1 299 303 327 306 312 315 312 327 351 323 303 307 65 114 110 105 100 95 89 82 77 68 60 63 77 73
165 168 168 166 169 173 168 174 176 179 175 176 172 179 191 205 193 190 168 168 163 164 162 165 185 217 217 170 202 228 226 151 93 257 343 309 291 285 278 273 284 302 326 319 277 281 268 110 109 111 110 103 101 96 93 86 78 74 60 59 72 72
168 166 169 170 167 173 174 180 181 177 171 188 186 184 200 208 206 192 184 182 175 185 171 171 179 196 203 182 206 214 210 183 191 204 230 234 277 271 269 268 263 296 323 336 18 30 32 45 99 113 106 103 101 101 94 85 75 70 63 59 70 71
168 169 168 171 171 182 174 182 190 190 192 194 183 203 203 205 202 202 197 199 195 196 178 176 185 184 194 174 209 205 186 181 180 213 217 178 175 234 241 292 303 326 18 18 16 49 61 66 81 112 113 107 104 98 93 89 84 76 66 60 65 75
172 174 172 171 177 185 181 185 186 185 189 195 191 208 204 198 207 207 204 203 199 195 190 183 186 192 167 189 190 189 194 204 189 180 153 181 156 172 314 337 24 59 56 17 357 348 100 89 95 110 116 113 108 107 102 96 90 82 71 62 65 75
173 173 174 171 179 186 187 188 196 194 183 193 200 205 201 201 212 204 210 207 208 195 193 185 188 174 175 186 180 170 167 173 161 154 146 169 169 120 159 353 33 68 64 6 3 302 89 103 114 111 113 115 114 111 107 105 96 88 80 68 63 70
174 174 173 176 179 188 187 196 198 192 176 193 199 196 201 209 207 210 213 206 206 198 187 181 177 170 175 170 170 171 183 159 146 145 151 153 145 139 137 130 99 92 90 71 307 353 58 104 131 119 123 119 120 113 107 102 101 100 88 76 65 63
175 174 174 179 179 185 194 197 197 186 190 196 189 192 203 204 209 216 211 200 198 195 180 181 171 166 169 168 172 182 179 167 166 134 133 141 126 137 129 110 91 91 89 50 48 50 56 89 113 128 126 120 118 114 113 112 105 97 93 81 75 66
174 175 177 178 180 186 193 194 194 193 196 191 189 192 202 202 208 216 208 197 196 192 183 173 175 169 170 170 163 166 174 164 154 134 136 137 135 99 93 90 60 84 79 76 72 53 62 68 94 113 118 122 121 119 118 113 106 98 93 89 80 77
176 177 180 180 178 183 191 191 196 196 196 186 191 190 204 198 193 204 204 199 194 193 181 174 160 158 154 154 156 165 163 150 153 141 134 132 125 130 115 114 110 74 79 85 80 63 76 81 80 92 102 115 118 123 122 115 109 105 99 92 93 84
175 178 180 181 179 183 187 188 192 198 201 191 188 193 203 187 182 193 195 199 189 186 172 164 157 154 146 149 153 156 157 161 160 139 142 145 136 114 130 129 127 99 87 79 75 62 71 84 97 100 107 115 119 119 112 111 106 109 105 106 92 88
174 179 183 182 181 182 184 187 191 198 203 198 191 193 199 190 182 182 191 192 183 176 165 164 157 146 144 153 162 167 171 163 158 141 140 132 118 126 121 120 86 132 108 89 90 68 57 90 90 95 97 104 112 113 112 110 114 110 111 102 99 96
177 179 179 182 181 180 181 185 191 197 200 197 195 198 196 182 176 178 187 188 175 174 163 164 159 149 146 157 161 162 167 173 158 145 135 118 103 156 137 121 75 101 122 120 101 92 68 81 92 87 85 89 86 101 104 117 121 125 113 111 117 115
176 177 178 179 182 179 182 184 189 196 196 197 197 189 188 171 177 180 180 182 170 166 163 167 156 147 141 154 161 164 160 166 153 132 129 128 173 165 153 119 107 92 120 120 113 113 105 89 88 88 76 70 67 79 94 109 121 122 127 135 139 147
173 177 178 177 177 176 176 183 186 187 193 201 187 178 175 173 173 174 183 172 164 157 163 165 154 146 145 155 158 171 160 162 149 134 128 138 137 139 121 113 125 101 69 86 128 126 123 111 90 82 77 58 65 62 64 78 88 108 123 140 151 150
176 175 174 174 173 173 173 182 186 185 195 198 173 170 181 178 164 177 178 165 161 157 162 161 153 151 153 156 166 174 164 159 146 134 133 138 149 149 145 126 128 124 109 88 71 124 126 110 81 72 70 56 45 55 61 75 85 100 118 135 145 133
177 174 174 176 178 175 178 181 187 190 194 188 172 173 179 173 172 176 169 162 159 161 161 155 153 153 159 165 171 166 157 167 157 146 146 159 161 154 144 139 130 127 130 119 111 146 146 119 113 71 46 51 43 26 41 60 70 67 86 117 124 130
176 179 180 179 176 178 183 185 181 184 174 166 165 169 180 181 181 171 169 161 161 163 164 159 154 156 157 160 165 169 170 170 160 155 149 139 144 138 131 128 131 98 85 139 153 177 180 118 47 143 134 88 25 4 29 42 44 22 32 66 127 116
179 180 182 178 175 179 178 175 173 168 168 146 155 176 175 175 165 168 169 162 160 164 161 156 158 160 157 164 173 165 175 165 160 153 124 128 135 139 146 147 153 142 136 61 121 187 191 93 142 115 95 95 148 88 316 14 17 28 13 29 84 103
181 180 180 182 177 170 166 162 167 157 158 152 162 155 139 142 154 150 164 160 162 164 163 157 162 162 157 160 167 170 161 158 163 162 147 144 157 161 147 146 142 151 144 143 163 200 210 172 137 136 130 143 187 126 233 253 194 263 7 28 80 112
179 181 179 176 171 157 153 152 135 112 114 92 87 134 138 161 176 174 162 159 169 167 164 156 161 164 158 160 165 161 156 155 152 156 144 148 163 176 179 171 162 156 170 159 180 188 212 156 189 176 133 105 53 119 215 230 119 258 10 77 18 12
179 179 177 174 166 162 165 161 155 157 167 171 169 170 185 178 164 178 183 161 157 170 161 154 160 156 154 149 162 167 156 150 149 146 146 155 155 142 161 167 182 169 178 186 163 171 190 218 201 172 172 126 169 174 179 212 113 241 2 35 300 327
180 177 173 172 168 167 167 171 173 178 180 183 180 192 173 165 171 172 155 167 165 165 166 156 155 149 153 157 156 162 159 153 149 144 133 130 149 169 169 179 170 167 180 169 156 174 185 186 133 269 233 70 79 70 139 131 187 91 185 305 344 237
178 176 175 169 171 174 172 174 178 181 182 185 184 175 170 161 152 151 159 167 158 167 164 157 149 151 157 156 155 156 152 146 136 140 137 147 156 153 134 115 164 176 165 173 178 173 185 179 172 205 106 79 66 75 79 89 139 162 158 163 248 265
180 175 174 172 173 178 176 177 179 179 182 185 170 162 153 149 151 154 154 156 161 164 158 152 153 154 162 158 163 158 153 144 140 140 128 129 134 150 159 152 141 142 163 180 185 178 162 189 181 177 118 61 75 64 57 62 100 89 133 115 252 200
182 177 173 175 176 177 178 175 180 183 178 168 157 146 152 153 154 156 160 162 161 160 159 155 160 158 154 164 159 155 154 151 147 141 132 143 135 131 139 149 162 163 159 159 178 165 182 176 185 166 169 151 122 91 67 63 67 88 55 81 164 203
183 175 173 176 178 181 179 181 183 182 177 167 162 156 154 155 145 155 154 144 141 173 175 168 159 154 154 154 154 154 149 146 143 143 136 143 154 150 153 143 135 125 139 152 152 138 105 121 135 121 126 166 172 171 175 174 192 184 146 131 71 84
181 179 176 178 181 183 182 184 185 178 176 171 165 167 167 164 168 170 168 167 165 152 165 162 158 146 156 162 148 146 147 139 139 138 147 143 138 137 133 124 117 123 116 104 118 124 134 133 125 107 104 132 150 144 136 163 180 165 167 188 152 168
185 181 179 178 184 184 183 185 182 179 176 170 172 169 168 167 173 174 169 162 164 167 157 160 176 165 178 168 151 142 147 146 142 144 137 130 135 134 132 124 127 118 126 139 147 142 139 144 145 147 144 110 124 128 139 128 125 135 99 130 137 113
185 181 178 181 183 184 188 184 180 177 174 172 174 169 169 170 175 171 168 175 177 171 171 175 170 178 171 165 163 164 157 152 145 138 139 139 139 139 129 128 129 129 127 120 108 112 118 117 103 107 122 117 100 113 112 106 126 130 143 127 141 146
180 183 182 183 183 186 185 183 180 177 173 173 171 170 171 171 168 166 166 174 179 167 169 171 172 164 162 162 158 153 154 146 143 138 134 132 127 117 115 105 106 111 99 109 113 116 118 124 119 117 105 116 116 86 99 111 121 134 140 157 154 162
183 183 183 181 185 184 183 178 177 177 177 172 169 167 168 167 166 164 173 185 179 173 166 155 156 155 168 159 157 155 152 147 141 138 139 136 135 130 129 122 114 115 111 115 121 114 118 109 114 116 112 113 97 94 90 98 93 112 115 141 137 142
185 182 184 185 183 180 176 175 181 179 173 174 173 173 171 166 166 170 174 181 175 168 151 154 157 162 157 163 157 154 148 144 142 140 135 136 135 132 131 126 129 124 120 118 112 117 120 114 118 117 106 109 113 115 104 99 88 89 95 83 94 129